GW0821 Weather Reports


time (UTC)temp
C
wind
direction
speed
KPH
gust
KPH
rain 1hr
cm
rain 24hr
cm
rain mn
cm
humidity
%
barometer
mb
20260510151546 23 238 1.6 22.5 0.00 1.55 0.00 40 1007.9
20260510150046 22 184 3.2 19.3 0.00 1.55 0.00 42 1008.0
20260510144550 23 267 6.4 16.1 0.00 1.68 0.00 42 1008.3
20260510143045 22 32 6.4 17.7 0.00 1.68 0.00 40 1008.6
20260510141549 22 245 1.6 8.0 0.00 1.68 0.00 43 1008.7
20260510140041 21 300 1.6 22.5 0.00 1.68 0.00 47 1008.9
20260510134555 22 298 4.8 17.7 0.00 1.68 0.00 46 1009.1
20260510133049 22 220 6.4 20.9 0.00 1.68 0.00 47 1009.1
20260510131554 22 307 9.7 24.1 0.00 1.68 0.00 43 1009.4
20260510130045 21 295 6.4 20.9 0.00 1.68 0.00 47 1009.5
20260510124543 21 63 6.4 20.9 0.00 1.68 0.00 46 1009.5
20260510123056 21 233 3.2 14.5 0.00 1.68 0.00 51 1009.5
20260510121540 21 344 9.7 16.1 0.00 1.68 0.00 50 1009.9
20260510120039 21 194 3.2 20.9 0.00 1.68 0.00 52 1010.0
20260510114543 20 267 4.8 19.3 0.00 1.68 0.00 53 1010.2
20260510113045 21 46 8.0 20.9 0.00 1.68 0.00 54 1010.2
20260510111543 20 270 6.4 17.7 0.00 1.68 0.00 57 1010.4
20260510110049 20 301 3.2 11.3 0.00 1.68 0.00 60 1010.3
20260510104541 19 7 4.8 12.9 0.00 1.68 0.00 60 1010.4
20260510103046 19 32 3.2 20.9 0.00 1.68 0.00 60 1010.5
20260510101551 18 295 3.2 17.7 0.00 1.68 0.00 63 1010.6
20260510100043 18 290 1.6 11.3 0.00 1.68 0.00 63 1010.9
20260510094546 18 344 6.4 16.1 0.00 1.68 0.00 63 1010.8
20260510093047 18 288 0.0 17.7 0.00 1.68 0.00 67 1010.8
20260510091549 18 9 4.8 12.9 0.00 1.68 0.00 67 1010.8
20260510090039 17 101 4.8 12.9 0.00 1.68 0.00 69 1010.8
20260510084538 17 5 3.2 14.5 0.00 1.68 0.00 71 1010.8
20260510083043 16 0 0.0 17.7 0.00 1.68 0.00 76 1010.8
20260510081548 16 124 1.6 6.4 0.00 1.68 0.00 75 1010.8
20260510080042 16 0 0.0 3.2 0.00 1.68 0.00 79 1010.8
20260510074540 15 0 0.0 0.0 0.00 1.68 0.00 86 1010.8
20260510073104 15 0 0.0 0.0 0.00 1.68 0.00 92 1010.8
20260510071553 13 0 0.0 0.0 0.00 1.68 0.00 96 1010.7
20260510070045 11 0 0.0 0.0 0.00 1.68 0.00 96 1010.9
20260510064556 11 0 0.0 0.0 0.00 1.68 0.00 97 1010.8
20260510063046 10 0 0.0 0.0 0.00 1.68 0.00 98 1010.6
20260510061540 10 0 0.0 0.0 0.00 1.68 0.00 98 1010.5
20260510060039 8 0 0.0 0.0 0.00 1.68 0.00 98 1010.5
20260510054544 8 0 0.0 0.0 0.00 1.68 0.00 98 1010.7
20260510053042 8 0 0.0 0.0 0.00 1.68 0.00 98 1010.6
20260510051554 7 0 0.0 0.0 0.00 1.68 0.00 98 1010.7
20260510050043 8 0 0.0 0.0 0.00 1.68 0.00 97 1010.6
20260510044548 8 0 0.0 0.0 0.00 1.68 0.00 97 1010.8
20260510043053 8 0 0.0 0.0 0.00 1.68 0.00 97 1010.8
20260510041548 8 0 0.0 0.0 0.00 1.68 0.00 97 1010.6
20260510040050 8 0 0.0 0.0 0.00 1.68 0.00 97 1010.4
20260510034543 8 0 0.0 0.0 0.00 1.68 0.00 97 1010.6
20260510033045 8 0 0.0 0.0 0.00 1.68 0.00 97 1010.7
20260510031553 8 0 0.0 0.0 0.00 1.68 0.00 97 1010.8
20260510030044 9 0 0.0 0.0 0.00 1.68 0.00 97 1011.0
20260510024548 9 0 0.0 0.0 0.00 1.68 0.00 97 1011.2
20260510023042 9 0 0.0 0.0 0.00 1.65 0.00 97 1011.2
20260510021543 9 0 0.0 0.0 0.00 1.65 0.00 97 1011.1
20260510020049 10 0 0.0 0.0 0.00 1.65 0.00 97 1011.0
20260510014540 10 0 0.0 0.0 0.00 1.65 0.00 97 1011.0
20260510013038 10 0 0.0 0.0 0.00 1.65 0.00 97 1010.9
20260510011546 10 0 0.0 0.0 0.00 1.65 0.00 97 1011.0
20260510010038 10 0 0.0 0.0 0.00 1.65 0.00 97 1011.1
20260510004542 11 0 0.0 0.0 0.00 1.65 0.00 97 1011.1
20260510003047 11 0 0.0 0.0 0.00 1.65 0.00 97 1011.3
20260510001539 11 0 0.0 0.0 0.00 1.65 0.00 97 1011.5
20260510000040 12 0 0.0 0.0 0.00 1.65 0.00 97 1011.6
20260509234539 12 0 0.0 0.0 0.00 1.65 0.00 97 1011.8
20260509233048 12 0 0.0 0.0 0.00 1.65 0.00 97 1012.1
20260509231542 12 0 0.0 0.0 0.00 1.65 0.00 97 1012.0
20260509230043 12 0 0.0 0.0 0.00 1.65 0.00 97 1012.1
20260509224550 12 0 0.0 0.0 0.00 1.65 0.00 97 1012.0
20260509223048 12 0 0.0 0.0 0.00 1.65 0.00 97 1012.2
20260509221600 12 0 0.0 0.0 0.00 1.65 0.00 97 1012.0
20260509220039 12 0 0.0 0.0 0.00 1.65 0.00 97 1012.0
20260509214548 12 0 0.0 0.0 0.00 1.65 1.65 97 1011.9
20260509213043 12 0 0.0 0.0 0.00 1.65 1.65 97 1012.0
20260509211539 12 0 0.0 0.0 0.00 1.65 1.65 97 1011.8
20260509210049 12 0 0.0 0.0 0.00 1.65 1.65 96 1011.7
20260509204547 12 0 0.0 0.0 0.00 1.65 1.65 96 1011.3
20260509203043 12 0 0.0 0.0 0.00 1.65 1.65 96 1011.2
20260509201556 12 0 0.0 0.0 0.00 1.65 1.65 96 1010.9
20260509200058 12 0 0.0 3.2 0.00 1.65 1.65 96 1011.0
20260509194550 12 0 0.0 0.0 0.00 1.65 1.65 96 1010.7
20260509193048 12 0 0.0 6.4 0.00 1.65 1.65 95 1010.3
20260509191546 12 103 3.2 9.7 0.03 1.65 1.65 95 1009.9
20260509190103 12 61 1.6 8.0 0.03 1.65 1.65 95 1009.7
20260509184551 12 35 3.2 8.0 0.03 1.65 1.65 95 1009.5
20260509183049 12 0 1.6 6.4 0.08 1.63 1.63 95 1009.5
20260509181545 12 132 3.2 9.7 0.18 1.60 1.60 95 1009.3
20260509180051 12 0 3.2 11.3 0.38 1.60 1.60 95 1008.9
20260509174550 12 0 1.6 12.9 0.58 1.60 1.60 95 1008.9
20260509173051 12 342 1.6 6.4 0.64 1.52 1.52 95 1009.4
20260509171548 13 0 0.0 1.6 0.84 1.40 1.40 95 1010.0
20260509170038 13 0 0.0 0.0 0.79 1.22 1.22 94 1010.6
20260509164551 13 0 0.0 0.0 0.69 1.02 1.02 94 1010.8
20260509163051 13 0 0.0 3.2 0.56 0.89 0.89 93 1011.1
20260509161556 13 113 0.0 8.0 0.28 0.56 0.56 92 1011.4
20260509160053 13 129 0.0 1.6 0.28 0.41 0.41 93 1011.3
20260509154550 13 342 0.0 1.6 0.30 0.30 0.30 92 1010.8
20260509153054 13 201 1.6 6.4 0.30 0.30 0.30 91 1009.3